TimeEST,TemperatureF,Dew PointF,Humidity,Sea Level PressureIn,VisibilityMPH,Wind Direction,Wind SpeedMPH,Gust SpeedMPH,PrecipitationIn,Events,Conditions,WindDirDegrees,DateUTC
12:51 AM,33.1,19.9,59,29.99,10.0,NW,11.5,18.4,N/A,,Overcast,320,2013-03-05 05:51:00
2:51 AM,32.0,19.9,61,29.98,10.0,NW,15.0,-,N/A,,Overcast,320,2013-03-05 07:51:00
3:16 AM,30.2,19.4,64,29.97,10.0,NW,11.5,-,N/A,,Mostly Cloudy,310,2013-03-05 08:16:00
3:51 AM,32.0,21.0,64,29.99,10.0,NW,12.7,23.0,N/A,,Overcast,310,2013-03-05 08:51:00
4:51 AM,32.0,21.0,64,30.01,10.0,NW,11.5,-,N/A,,Overcast,320,2013-03-05 09:51:00
5:51 AM,32.0,21.0,64,30.03,10.0,Variable,4.6,-,N/A,,Overcast,0,2013-03-05 10:51:00
6:51 AM,32.0,21.0,64,30.04,10.0,NW,9.2,-,N/A,,Overcast,320,2013-03-05 11:51:00
7:51 AM,34.0,21.0,59,30.04,10.0,NNW,10.4,-,N/A,,Overcast,330,2013-03-05 12:51:00
8:13 AM,33.8,21.2,60,30.03,10.0,NNW,12.7,-,N/A,,Scattered Clouds,330,2013-03-05 13:13:00
8:51 AM,35.6,21.2,56,30.03,10.0,North,10.4,-,N/A,,Scattered Clouds,350,2013-03-05 13:51:00
9:51 AM,37.0,21.9,54,30.04,10.0,North,8.1,-,N/A,,Scattered Clouds,360,2013-03-05 14:51:00
10:51 AM,39.0,23.0,53,30.03,10.0,Variable,5.8,-,N/A,,Partly Cloudy,0,2013-03-05 15:51:00
11:51 AM,39.9,21.9,49,30.03,10.0,Variable,4.6,-,N/A,,Clear,0,2013-03-05 16:51:00
12:51 PM,44.1,23.0,43,30.01,10.0,East,5.8,-,N/A,,Clear,80,2013-03-05 17:51:00
1:51 PM,44.1,23.0,43,30.00,10.0,NW,4.6,-,N/A,,Clear,310,2013-03-05 18:51:00
2:51 PM,46.0,23.0,40,29.98,10.0,Calm,Calm,-,N/A,,Clear,0,2013-03-05 19:51:00
3:51 PM,46.9,24.1,41,29.97,10.0,ENE,6.9,-,N/A,,Clear,60,2013-03-05 20:51:00
4:51 PM,46.0,24.1,42,29.96,10.0,NNE,5.8,-,N/A,,Clear,30,2013-03-05 21:51:00
5:51 PM,41.0,24.1,51,29.97,10.0,ENE,6.9,-,N/A,,Clear,60,2013-03-05 22:51:00
6:51 PM,37.0,23.0,57,29.98,10.0,Calm,Calm,-,N/A,,Clear,0,2013-03-05 23:51:00
7:51 PM,37.9,24.1,57,29.97,10.0,ENE,5.8,-,N/A,,Clear,70,2013-03-06 00:51:00
8:51 PM,37.0,23.0,57,29.97,10.0,East,3.5,-,N/A,,Mostly Cloudy,100,2013-03-06 01:51:00
9:51 PM,39.9,25.0,55,29.97,10.0,SE,9.2,-,N/A,,Overcast,130,2013-03-06 02:51:00
10:51 PM,39.0,25.0,57,29.96,10.0,East,8.1,-,N/A,,Overcast,100,2013-03-06 03:51:00
11:51 PM,37.9,26.1,62,29.95,10.0,East,6.9,-,N/A,,Mostly Cloudy,100,2013-03-06 04:51:00